Morrisville, NC

9:50 AM EST on December 03, 2016 (GMT -0500)
Raleigh-Durham International

Weather History for KRDU - September, 2011

Change the Weather History Date:

Tuesday, September 13, 2011

  Actual Average Record
Temperature  
Mean Temperature 76 °F 73 °F  
Max Temperature 88 °F 83 °F 94 °F (1936)
Min Temperature 63 °F 63 °F 48 °F (1985)
Degree Days  
Heating Degree Days 0 0  
Month to date heating degree days 0 0  
Since 1 July heating degree days 0 1  
Cooling Degree Days 11 8  
Month to date cooling degree days 152 128  
Year to date cooling degree days 1959 1569  
Growing Degree Days 26 (Base 50)    
Moisture  
Dew Point 63 °F    
Average Humidity 65    
Maximum Humidity 93    
Minimum Humidity 36    
Precipitation  
Precipitation 0.00 in 0.16 in 2.36 in (1964)
Month to date precipitation 1.75 2.06  
Year to date precipitation 31.03 31.60  
Sea Level Pressure  
Sea Level Pressure 30.00 in    
Wind  
Wind Speed 3 mph (South)    
Max Wind Speed 8 mph    
Max Gust Speed 12 mph    
Visibility 10 miles    
Events      
T = Trace of Precipitation, MM = Missing Value Source: NWS Daily Summary

Daily Weather History Graph

Daily Weather History Graph

Search for Another Location

Airport or City:

Trip Planner

Search our weather history database for the weather conditions in past years. The results will help you decide how hot, cold, wet, or windy it might be!

Date:

Astronomy

Sep. 13, 2011 Rise Set
Actual Time 6:55 AM EDT 7:25 PM EDT
Civil Twilight 6:30 AM EDT 7:51 PM EDT
Nautical Twilight 5:59 AM EDT 8:21 PM EDT
Astronomical Twilight 5:29 AM EDT 8:52 PM EDT
Moon 7:46 PM EDT (9/13) 8:03 AM EDT (9/13)
Length of Visible Light 13h 21m
Length of Day
12h 29m
Full, 99% of the Moon is Illuminated
Sep 13
Full
Sep 20
Last Quarter
Sep 27
New
Oct 3
First Quarter
Oct 11
Full

Hourly Weather History & Observations

Time (EDT) Temp. Heat Index Dew Point Humidity Pressure Visibility Wind Dir Wind Speed Gust Speed Precip Events Conditions
12:51 AM 70.0 °F - 63.0 °F 78% 30.04 in 10.0 mi South 4.6 mph - N/A   Clear
1:51 AM 66.9 °F - 62.1 °F 84% 30.03 in 10.0 mi Calm Calm - N/A   Clear
2:51 AM 66.2 °F - 62.6 °F 88% 30.03 in 10.0 mi West 3.5 mph - N/A   Clear
3:51 AM 66.0 °F - 62.1 °F 87% 30.01 in 10.0 mi Calm Calm - N/A   Clear
4:51 AM 66.0 °F - 62.1 °F 87% 30.01 in 10.0 mi Calm Calm - N/A   Clear
5:51 AM 64.9 °F - 62.1 °F 90% 30.01 in 10.0 mi Calm Calm - N/A   Clear
6:51 AM 64.9 °F - 62.1 °F 90% 30.01 in 7.0 mi Calm Calm - N/A   Clear
7:51 AM 66.2 °F - 62.6 °F 88% 30.04 in 8.0 mi Calm Calm - N/A   Clear
8:51 AM 70.0 °F - 64.0 °F 81% 30.03 in 10.0 mi Calm Calm - N/A   Clear
9:51 AM 75.2 °F - 64.4 °F 69% 30.04 in 10.0 mi Calm Calm - N/A   Clear
10:51 AM 79.0 °F - 64.0 °F 60% 30.04 in 10.0 mi Calm Calm - N/A   Clear
11:51 AM 82.9 °F 84.6 °F 64.9 °F 54% 30.03 in 10.0 mi Variable 3.5 mph - N/A   Partly Cloudy
12:51 PM 86.0 °F 86.3 °F 62.1 °F 44% 30.02 in 10.0 mi West 3.5 mph - N/A   Scattered Clouds
1:51 PM 84.0 °F 84.0 °F 60.1 °F 44% 30.01 in 10.0 mi West 6.9 mph - N/A   Scattered Clouds
2:51 PM 87.1 °F 87.5 °F 62.1 °F 43% 29.99 in 10.0 mi WSW 4.6 mph - N/A   Mostly Cloudy
3:51 PM 87.1 °F 86.7 °F 60.1 °F 40% 29.96 in 10.0 mi Variable 3.5 mph - N/A   Scattered Clouds
4:51 PM 87.1 °F 86.7 °F 60.1 °F 40% 29.95 in 10.0 mi SE 5.8 mph - N/A   Scattered Clouds
5:51 PM 87.1 °F 86.1 °F 57.9 °F 37% 29.95 in 10.0 mi ESE 4.6 mph - N/A   Scattered Clouds
6:51 PM 84.0 °F 84.5 °F 62.1 °F 47% 29.96 in 10.0 mi SE 3.5 mph - N/A   Scattered Clouds
7:51 PM 79.0 °F - 63.0 °F 58% 29.96 in 10.0 mi ESE 6.9 mph - N/A   Scattered Clouds
8:51 PM 77.0 °F - 64.0 °F 64% 29.98 in 10.0 mi SE 3.5 mph - N/A   Scattered Clouds
9:51 PM 73.0 °F - 64.9 °F 76% 29.99 in 10.0 mi Calm Calm - N/A   Mostly Cloudy
10:51 PM 75.9 °F - 64.0 °F 67% 30.00 in 10.0 mi South 5.8 mph - N/A   Mostly Cloudy
11:51 PM 73.0 °F - 64.0 °F 73% 30.00 in 10.0 mi SW 4.6 mph - N/A   Mostly Cloudy